STARLINK-1745 (46377 NORAD) Tracking and Keplerian Element Data

This shows tracking and keplerian element data for the satellite.

Feedback or suggestion? Click here.




ElementValue
Catalog46377
NameSTARLINK-1745
Epoch Orbit180
Epoch Day332.91668981
Epoch Year2020
RAAN10.3544
Inclination52.9984
Eccentricity0.0002774
Argument of Perigee9.4053
Mean Anonmoly113.2832
Mean Motion15.62743205
Decay Rate-0.0001632
L11 46377U 20062BE 20332.91668981 -.00016320 00000-0 -17277-3 0 9996
L22 46377 52.9984 10.3544 0002774 9.4053 113.2832 15.62743205 1808

Live tracking and technical data element details for STARLINK-1745 (NORAD 46377). STARLINK-1745 can be tracked NOW for your location showing map with azimuth and elevation plus other details from your city location.

Track the satellite on the map from your city or location and see movement details for azimuth, elevation, latitude, longitude, range, height, and movement on the map or in text.







IsCatalogInMostPopularTable: catalog: 46377, numindb: 24
Update: records affected: 1



GetName: 46377 STARLINK-1745

Hit Count: updated at: Sun, 29 Nov 2020 10:11:11 GMT